Wind_Speed
16 17 17 17 19 19 18 17 17 18 19 19 20 21 21 21 22 23 24 25 26 25 24 25 26 26 25 24 23 23 22 22 22 22 23 24 25 26 27 28 28 29 29 28 28 28 29 29 30 30 31 32 33 33 34 34 35 36 36 37 38 39 40
20 23 22 21 20 20 19 18 17 18 20 20 21 22 21 21 21 22 23 24 24 24 24 25 26 26 24 23 22 22 22 22 22 23 24 25 26 27 29 30 30 30 30 29 29 29 29 30 30 31 32 33 34 34 35 35 36 36 37 38 39 39 40
28 27 25 23 22 22 20 19 18 18 20 20 21 22 21 21 21 21 22 22 22 22 24 25 25 25 23 22 22 21 22 23 23 24 25 26 27 28 29 30 31 31 30 30 29 29 30 30 31 32 33 34 34 35 35 36 36 37 38 39 40 40 41
28 27 26 24 24 23 19 18 17 18 19 19 20 20 20 21 21 20 21 21 20 21 23 25 25 25 24 23 22 22 22 23 23 24 25 26 27 28 29 30 31 31 31 30 30 30 30 30 31 32 33 34 35 35 36 36 37 38 39 40 41 42 42
21 23 26 25 24 23 20 19 17 17 18 19 20 19 19 20 21 20 19 19 19 20 23 25 25 26 25 25 24 22 22 23 24 25 26 26 26 27 28 29 30 31 31 31 31 30 30 30 32 33 34 35 35 36 37 37 38 38 39 40 42 42 43
20 23 27 26 25 23 22 21 18 17 19 20 20 20 19 20 20 20 19 18 18 20 22 25 26 26 26 26 25 23 22 23 24 25 25 25 25 26 28 29 30 31 32 32 31 31 31 31 32 33 34 35 37 38 39 39 39 39 40 41 42 43 43
25 27 27 24 24 24 23 20 18 18 19 20 21 21 20 20 20 21 21 20 21 22 23 25 26 27 27 25 24 24 24 23 24 24 23 24 25 27 29 30 31 32 31 31 31 31 31 32 32 33 35 36 38 39 40 40 40 41 41 42 43 43 44
28 30 28 23 22 21 20 18 16 18 19 21 22 22 22 21 22 23 23 24 24 24 25 26 27 27 27 26 25 25 25 25 25 24 23 25 27 29 31 32 32 32 31 30 30 30 31 31 32 33 35 36 38 39 40 41 41 42 43 44 44 44 45
30 30 28 24 21 20 20 18 17 18 20 22 23 24 24 23 24 25 25 27 27 26 27 27 26 26 27 27 27 26 26 27 27 26 25 26 29 31 33 33 32 32 31 31 31 30 30 31 32 34 35 37 39 40 41 42 43 44 44 44 45 45 45
30 28 27 27 24 21 19 18 18 20 21 23 24 26 27 26 26 27 27 28 29 28 28 27 26 26 27 28 28 26 27 28 28 27 26 27 30 32 34 34 33 32 32 32 32 31 31 32 33 35 37 39 40 41 42 43 43 44 45 45 45 45 45
30 29 27 27 26 22 20 18 19 20 21 24 27 28 29 29 29 30 30 30 29 29 29 27 26 26 27 28 28 27 27 28 27 26 26 28 31 34 35 34 34 34 34 34 33 32 33 34 35 36 38 39 41 42 42 42 43 45 46 45 45 45 45
29 27 24 24 24 25 24 22 22 23 24 27 29 30 31 31 31 31 32 32 30 28 28 27 25 26 28 29 28 27 27 27 26 26 28 31 34 36 36 35 35 36 35 34 33 33 34 35 36 38 39 41 42 43 44 44 45 46 46 45 45 45 45
26 25 23 22 23 25 26 26 24 25 27 28 29 31 31 31 32 33 33 32 31 29 27 26 25 27 29 29 28 27 27 27 26 28 30 33 36 37 37 36 36 36 35 34 33 34 35 37 38 40 42 43 44 45 46 46 46 46 46 45 45 45 46
24 24 23 23 23 23 25 27 26 26 29 31 32 32 32 32 33 34 34 33 32 29 27 26 26 28 29 29 27 28 29 28 27 29 32 33 35 36 37 37 36 36 35 34 35 36 37 39 40 42 44 45 46 46 47 47 47 47 46 45 45 46 46
24 26 26 25 26 25 25 27 29 28 30 32 34 34 33 33 33 34 35 34 33 30 27 26 27 28 28 27 26 28 30 29 29 31 33 34 35 37 37 37 36 35 36 36 37 38 39 41 43 44 45 46 47 47 47 47 47 46 45 45 45 45 45
26 29 30 28 28 28 27 28 30 31 31 32 34 34 33 32 32 35 35 35 34 31 29 28 28 28 26 24 25 28 28 27 28 32 33 35 36 37 37 37 36 36 37 37 39 40 41 43 45 46 47 48 48 47 47 46 46 46 45 45 45 45 45
29 31 33 32 31 30 30 30 31 32 31 31 32 34 33 32 32 34 36 36 35 34 33 31 29 27 24 22 23 26 26 26 28 30 33 34 36 37 37 38 37 37 38 39 41 42 44 46 47 49 49 49 48 47 48 47 46 45 45 45 45 45 45
33 34 35 35 34 34 34 33 32 32 32 32 33 33 31 29 30 34 37 39 39 39 36 31 28 27 26 24 24 26 27 28 29 30 33 35 36 37 38 39 39 39 40 41 42 44 45 47 49 50 51 50 49 49 49 48 46 45 45 45 45 45 45
33 35 36 37 37 36 36 35 33 32 33 33 32 30 29 29 31 34 36 36 38 40 37 34 33 33 32 31 31 32 30 30 31 32 34 35 37 38 39 39 40 40 41 43 43 45 46 47 49 50 51 50 50 50 50 47 46 45 44 44 44 44 43
32 34 37 38 37 37 37 37 34 33 33 32 30 30 30 31 32 32 31 31 33 35 35 38 40 37 33 35 35 32 31 32 34 34 34 36 38 39 40 41 41 41 42 43 44 45 46 48 49 49 50 50 50 50 49 46 45 45 44 44 44 42 40
34 35 37 36 36 37 37 35 33 32 32 31 31 31 31 30 30 30 31 31 32 33 34 36 36 31 29 32 32 30 32 35 35 34 35 38 39 41 41 42 42 42 42 44 45 46 48 48 49 49 49 49 49 48 46 45 45 45 45 44 41 36 32
37 37 36 34 36 38 36 34 33 33 32 32 32 32 31 30 30 32 33 33 33 36 36 32 27 23 25 29 30 31 34 35 34 35 36 38 40 42 43 43 43 43 44 45 46 47 48 49 50 51 50 49 48 45 44 43 43 42 41 39 34 29 27
39 38 37 37 38 38 36 35 35 34 33 33 32 32 32 31 32 34 36 33 29 28 26 24 22 23 24 27 30 32 33 33 34 36 37 39 41 42 44 45 45 45 46 47 47 48 49 49 49 50 48 46 44 41 40 40 39 37 36 33 31 31 32
38 38 39 38 37 35 34 35 36 35 34 33 33 33 32 32 34 36 36 31 28 26 27 29 31 30 27 29 31 32 32 33 36 37 39 41 43 44 47 48 47 47 48 48 49 49 48 46 46 46 46 44 42 40 39 39 38 38 38 38 39 40 40
39 37 36 35 34 33 32 34 36 36 35 34 33 34 33 33 35 36 34 32 31 32 33 35 36 34 32 32 32 32 33 35 37 39 41 43 45 47 49 48 46 45 46 46 45 45 43 43 45 47 48 47 44 43 42 40 40 42 44 45 44 43 42
36 31 31 33 33 33 33 36 38 38 36 35 34 34 34 34 34 36 36 36 36 36 36 37 37 36 34 33 33 33 35 37 39 40 42 44 45 45 44 43 42 44 46 46 46 45 43 44 45 47 49 47 45 44 44 42 42 44 45 45 44 43 42
34 31 32 34 35 35 35 38 40 41 40 37 35 36 36 34 33 34 36 37 38 38 39 39 37 35 34 34 34 35 36 38 39 41 42 44 45 45 45 47 48 48 48 47 47 44 42 43 45 47 47 46 45 44 44 43 44 46 45 45 45 44 43
35 34 33 33 34 34 35 39 44 47 46 43 38 36 35 34 33 34 35 37 38 38 38 36 35 34 34 34 35 35 37 38 39 41 43 44 46 48 50 51 51 48 48 48 47 44 43 46 49 49 47 45 43 42 42 43 45 46 45 45 45 44 43
38 37 35 33 34 34 36 41 46 47 47 45 39 36 36 34 33 33 34 36 37 36 35 35 34 34 34 34 36 37 38 39 40 42 43 43 45 49 50 50 49 48 49 51 50 49 50 52 53 50 47 46 44 42 42 44 46 46 45 45 44 43 43
39 38 36 35 37 37 37 42 46 45 40 40 37 34 36 34 30 31 32 33 35 36 35 35 34 34 35 35 37 39 39 40 41 43 44 44 45 48 50 50 50 50 51 53 54 54 55 55 54 52 50 47 45 43 44 45 45 45 44 43 42 42 42
36 35 34 35 38 39 38 41 46 42 34 37 37 33 34 30 27 28 29 32 36 37 35 34 33 33 35 36 38 40 41 42 43 44 45 45 46 47 49 50 51 51 52 55 57 57 57 56 55 54 51 48 45 45 46 47 46 44 43 41 41 41 41
35 34 34 34 36 39 39 41 44 41 34 39 40 33 31 29 25 26 29 33 36 36 33 33 32 32 34 37 39 41 43 44 45 46 46 47 47 48 49 51 52 53 54 56 57 57 57 56 55 54 51 48 46 47 48 47 45 43 41 40 40 40 40
35 36 37 35 36 39 40 40 42 41 37 41 43 36 33 31 27 28 33 35 34 33 32 32 32 33 36 39 42 44 45 46 47 47 47 48 48 49 50 52 53 54 55 56 57 57 56 55 54 53 50 48 48 48 48 46 43 41 40 39 39 40 39
37 38 39 37 37 40 40 39 41 40 37 42 46 39 34 32 30 33 37 35 31 31 32 33 35 36 38 42 45 46 47 47 48 48 48 48 49 50 51 51 52 54 55 56 56 56 55 54 52 51 49 48 48 47 46 44 42 40 39 38 39 39 37
37 38 38 37 37 39 40 40 41 40 39 41 45 40 35 34 34 36 38 35 33 32 34 36 37 38 41 44 46 47 48 47 48 48 48 48 49 50 50 51 52 53 54 55 55 55 54 52 51 50 49 48 46 45 44 42 40 38 37 37 38 37 35
38 38 38 37 36 38 40 40 41 43 42 40 45 46 43 40 38 40 42 40 36 34 34 36 38 40 43 46 47 48 47 47 48 48 48 48 49 50 51 52 52 53 54 54 54 54 52 51 50 48 47 45 44 42 41 39 38 37 36 36 36 34 32
39 39 39 38 37 38 41 42 43 44 41 35 39 44 43 40 41 44 42 38 36 36 37 38 40 42 45 46 47 48 48 48 49 49 49 50 50 50 52 52 53 53 53 53 53 51 50 49 47 45 43 41 40 39 37 36 36 35 34 35 34 32 30
39 40 41 41 40 41 43 44 44 45 43 39 41 45 47 48 49 46 40 39 41 42 41 41 41 42 43 45 47 48 49 49 49 50 51 51 51 51 52 52 52 52 51 50 48 47 45 44 42 40 38 37 37 36 35 34 34 34 34 33 33 31 30
Wind_Direction
280 290 295 292 290 289 284 275 268 268 275 281 280 277 276 274 274 277 279 281 284 288 293 296 297 295 293 293 294 296 298 299 301 304 307 309 311 313 315 315 316 317 317 316 315 313 312 312 312 314 315 316 317 317 316 315 314 313 312 312 311 311 311
295 296 293 291 293 293 286 277 271 272 276 280 282 281 280 280 280 281 283 285 286 289 295 299 299 297 294 293 294 295 296 297 300 304 307 309 311 312 314 316 317 317 316 315 313 311 311 311 311 313 314 315 316 316 315 314 314 314 313 313 312 312 312
307 303 297 295 297 295 288 282 281 281 279 281 285 286 286 286 286 287 289 289 289 291 296 299 298 297 296 296 296 296 296 298 301 304 306 308 310 312 314 316 316 315 313 312 311 310 309 310 311 312 313 314 314 314 314 314 314 314 314 314 313 313 313
304 303 301 298 297 294 288 285 286 283 282 285 288 289 288 287 286 289 292 291 290 291 295 297 297 298 299 299 298 297 297 299 302 305 306 308 310 312 313 315 315 314 313 311 310 309 309 309 310 311 312 312 313 314 314 315 315 315 315 314 314 313 313
306 310 308 302 296 292 286 285 286 282 282 285 285 286 285 284 284 286 290 291 290 291 293 295 297 299 300 300 299 299 300 302 304 305 306 308 309 311 314 317 316 314 312 310 309 309 308 308 309 310 310 312 313 314 315 315 316 316 315 315 314 313 313
293 301 302 298 293 287 282 282 282 279 279 282 283 285 286 284 282 280 284 289 291 291 292 294 298 300 301 302 301 302 302 304 306 307 308 308 310 313 317 319 318 315 312 310 308 307 307 308 309 309 311 313 315 315 316 316 317 317 316 315 314 314 314
281 290 293 291 287 285 284 282 279 275 277 281 283 285 286 286 283 280 281 286 289 292 294 295 298 299 301 302 301 301 303 306 310 310 309 309 312 316 319 320 318 315 312 309 308 308 308 309 309 311 314 315 316 316 316 317 317 317 316 316 315 315 315
284 290 292 287 283 285 286 286 283 278 278 280 282 283 284 286 285 284 286 288 291 294 293 294 297 298 300 301 300 302 306 311 313 312 309 311 315 319 319 318 315 312 309 308 308 308 308 310 312 314 316 316 315 315 316 317 318 318 317 316 316 316 316
287 291 292 288 283 281 282 285 285 282 280 281 282 283 283 284 285 286 288 290 292 292 292 294 297 299 299 298 300 306 310 314 317 314 312 314 319 320 317 314 312 310 308 306 306 306 306 308 311 314 316 317 317 318 318 318 318 318 318 317 317 317 317
288 290 289 285 283 282 282 286 286 285 286 288 290 291 289 287 285 287 289 290 291 292 293 296 298 299 298 297 302 309 311 314 317 315 312 315 319 319 314 311 310 309 307 305 304 304 304 306 310 314 317 318 319 319 318 318 318 318 318 318 317 317 317
288 290 288 285 286 290 293 294 293 291 293 296 299 299 297 293 289 288 290 290 290 291 293 295 298 297 294 296 303 309 309 311 313 310 306 310 315 316 313 310 309 308 306 304 303 303 304 308 312 316 318 318 318 317 317 318 319 318 318 318 318 317 317
285 284 281 279 286 295 300 302 303 300 300 301 301 300 299 296 294 292 291 289 288 290 291 294 297 295 292 296 302 303 304 307 308 304 303 305 311 314 312 309 308 307 306 305 305 306 309 313 315 317 317 317 317 317 317 318 319 318 318 318 318 317 317
284 278 273 276 286 296 301 304 305 304 305 305 303 300 298 297 297 296 292 289 288 288 290 293 295 293 292 295 297 296 300 306 306 305 305 307 310 310 309 308 308 307 306 307 308 310 313 315 316 317 317 319 319 319 318 318 317 317 318 318 318 317 317
284 281 279 281 286 291 298 302 305 306 307 308 306 302 300 299 298 296 292 290 290 290 292 294 293 290 290 292 292 293 298 301 302 304 308 310 309 307 306 307 307 307 308 310 311 313 315 316 317 319 321 321 321 319 318 317 317 317 317 317 317 317 317
284 285 284 286 290 294 300 303 305 306 307 307 305 302 300 300 298 295 291 291 292 291 290 288 286 284 286 288 288 291 296 296 296 300 307 310 308 305 305 307 307 309 311 313 315 316 317 319 321 322 322 322 321 319 317 317 317 316 316 316 316 316 317
284 287 285 288 294 298 301 303 304 305 305 303 301 299 299 299 297 293 291 291 291 289 285 282 279 278 281 284 287 290 294 296 296 299 305 307 306 305 306 308 309 312 314 315 316 318 319 321 322 322 321 321 320 319 317 316 315 315 314 313 314 314 315
283 286 286 289 293 295 298 300 301 302 302 301 298 297 297 298 295 292 289 286 283 278 274 272 273 279 283 284 287 293 298 301 301 302 304 305 305 307 308 309 312 314 315 316 317 319 321 322 322 321 321 320 319 318 316 314 313 313 312 312 312 313 314
277 278 282 286 288 292 296 298 299 300 299 299 297 296 295 293 290 288 285 279 274 272 272 272 278 286 286 280 284 294 303 307 306 304 305 306 307 308 308 309 312 314 315 316 319 321 322 322 321 320 319 318 318 316 314 312 311 311 311 311 312 313 313
272 273 276 279 282 287 295 299 300 299 297 297 296 293 290 287 288 292 292 287 282 281 280 278 278 282 281 278 283 292 300 307 309 307 307 308 307 307 309 310 312 314 315 317 319 320 320 320 319 318 317 317 317 314 311 310 310 311 311 311 312 313 314
270 274 275 277 281 287 294 298 297 295 295 295 292 288 287 290 296 301 301 297 291 288 283 275 272 275 278 279 283 289 297 306 309 307 307 307 307 308 309 310 312 314 315 317 317 318 318 318 317 317 316 316 316 313 310 310 311 311 311 311 311 313 315
275 278 279 281 285 289 294 296 294 292 293 291 288 288 290 294 297 297 295 292 290 291 286 275 271 277 285 284 283 286 295 304 307 306 305 306 306 308 309 310 311 312 314 314 315 316 316 316 316 316 315 315 315 312 309 309 311 312 311 310 311 315 319
279 282 284 285 287 289 292 292 290 290 289 286 286 290 291 291 291 290 289 289 294 298 291 277 276 291 296 291 288 290 296 302 303 303 304 305 305 307 307 308 309 311 313 313 313 314 314 314 315 315 314 313 312 308 305 307 310 311 310 310 314 320 322
277 279 282 284 284 285 287 287 287 287 286 285 286 287 286 287 289 289 286 288 295 298 290 282 296 308 299 290 292 294 296 300 301 303 304 304 305 306 307 308 311 312 313 312 311 311 311 312 314 314 313 313 310 306 304 307 310 312 312 312 314 315 314
275 277 280 282 281 282 283 284 284 284 285 285 285 282 280 284 288 287 286 288 290 286 282 287 298 303 296 293 297 297 297 300 303 304 305 305 306 307 308 310 311 311 310 309 310 309 309 310 312 312 311 311 309 307 308 309 309 310 311 310 310 309 309
276 278 280 281 283 285 285 284 284 284 284 284 282 279 279 282 285 284 285 289 288 285 285 288 293 296 297 299 301 300 300 303 304 305 306 306 308 311 312 311 311 310 309 310 311 309 308 308 309 308 307 308 306 304 305 306 307 308 308 307 308 309 310
278 278 277 280 284 286 285 284 284 284 283 283 282 278 277 280 281 282 285 287 288 287 289 290 292 295 298 301 302 302 301 302 302 304 306 306 308 313 314 311 309 310 310 309 309 306 304 304 305 306 306 307 305 302 300 302 305 308 307 306 308 310 312
279 279 280 283 285 285 285 285 284 284 284 283 280 275 272 273 274 277 281 284 285 286 288 290 292 295 299 301 300 298 298 298 300 303 304 304 305 308 307 305 306 308 308 308 308 305 303 303 306 307 308 307 306 303 301 302 305 307 306 307 308 310 312
282 283 284 285 284 284 287 287 288 289 288 281 273 266 263 264 267 270 275 279 282 285 287 289 291 293 295 295 294 293 294 296 299 300 301 302 303 303 303 305 307 308 308 309 309 307 305 307 309 310 309 307 307 304 303 305 307 306 305 306 307 309 312
284 285 287 287 286 287 291 292 295 298 291 274 260 254 255 258 263 269 274 279 281 283 283 284 287 287 287 289 290 292 294 296 297 298 299 300 301 301 302 304 306 307 307 308 308 307 306 307 308 309 308 307 306 305 304 305 305 304 303 305 306 309 312
285 287 288 290 290 292 295 293 298 305 292 265 250 248 251 256 264 270 274 279 280 280 280 281 283 284 285 289 291 293 295 296 297 299 300 300 299 299 300 301 303 304 304 304 306 306 305 305 306 307 307 306 306 306 304 303 303 301 301 303 306 309 311
283 283 285 287 288 291 293 291 297 306 290 260 252 251 249 255 269 275 279 283 281 279 280 281 283 285 287 291 293 295 297 299 299 300 300 299 298 298 298 299 301 301 301 302 304 305 305 305 306 306 305 305 305 305 303 301 300 300 301 304 307 309 311
286 284 284 285 285 288 292 290 294 303 289 262 254 250 250 262 276 282 290 291 283 278 279 279 282 287 290 294 297 299 301 302 302 302 300 299 299 300 299 300 300 301 302 303 303 303 304 304 305 305 304 303 303 302 300 299 300 301 302 305 307 310 311
285 284 284 285 285 287 290 290 293 301 293 266 253 253 259 269 278 289 299 298 285 277 278 279 283 289 293 298 302 303 303 302 301 299 299 299 300 300 300 301 301 302 302 302 302 302 303 304 304 303 302 301 300 299 298 298 300 302 304 306 308 310 313
281 283 284 287 287 287 290 291 292 298 292 267 256 259 265 269 279 293 300 297 285 277 278 281 285 290 295 299 302 301 299 298 297 297 298 298 299 300 301 301 301 302 302 302 302 303 304 304 303 301 299 298 297 297 297 298 301 303 304 307 309 310 313
283 284 284 286 287 286 289 291 290 294 293 272 258 259 267 272 283 295 298 292 282 277 280 284 286 289 293 296 296 295 294 295 295 296 298 299 299 300 301 300 300 302 302 303 304 305 305 304 303 301 299 298 298 297 298 299 301 303 304 306 307 309 312
284 284 284 286 288 287 289 290 288 292 294 275 258 261 270 273 282 294 297 291 283 279 282 286 286 287 290 291 292 293 293 294 296 297 298 299 301 301 301 302 303 304 305 305 306 306 305 304 303 302 301 300 298 298 299 300 301 303 303 304 305 306 310
283 285 285 287 288 286 286 287 286 290 292 276 262 266 271 273 283 294 294 287 284 283 283 285 288 291 292 294 295 295 295 297 299 300 300 301 302 303 303 305 306 306 307 308 307 306 305 303 303 303 302 299 298 298 300 301 302 302 301 302 302 303 306
283 285 285 285 286 285 284 285 286 287 287 281 275 274 273 275 283 290 288 285 286 285 283 287 293 296 297 296 295 295 297 299 300 301 301 302 303 303 304 306 307 308 308 308 307 306 304 304 303 302 300 299 299 301 302 302 302 301 300 299 299 299 302
Height
5913 5913 5914 5915 5915 5916 5917 5917 5917 5917 5916 5916 5916 5916 5916 5916 5915 5914 5914 5914 5913 5912 5912 5911 5911 5910 5910 5909 5909 5908 5908 5907 5906 5905 5904 5903 5901 5900 5899 5898 5897 5895 5894 5892 5891 5889 5888 5886 5884 5882 5880 5878 5877 5875 5873 5871 5868 5866 5864 5861 5859 5857 5854
5912 5911 5912 5913 5912 5913 5913 5914 5915 5916 5915 5914 5914 5913 5913 5913 5912 5911 5911 5911 5911 5909 5908 5908 5907 5907 5907 5907 5906 5906 5905 5905 5903 5902 5901 5900 5898 5897 5896 5895 5893 5892 5890 5888 5887 5886 5884 5883 5881 5879 5877 5875 5873 5871 5869 5867 5865 5862 5860 5857 5855 5853 5850
5909 5908 5909 5910 5910 5910 5910 5911 5912 5913 5913 5913 5912 5911 5911 5910 5910 5909 5908 5908 5908 5907 5906 5905 5904 5905 5905 5904 5903 5903 5903 5902 5901 5899 5898 5897 5895 5894 5893 5892 5890 5889 5887 5885 5883 5882 5881 5879 5877 5875 5873 5871 5869 5867 5865 5863 5860 5858 5856 5853 5851 5848 5846
5905 5904 5905 5906 5907 5907 5908 5908 5909 5909 5910 5910 5910 5909 5908 5907 5907 5906 5905 5905 5905 5904 5903 5902 5901 5902 5902 5901 5901 5901 5900 5899 5898 5896 5895 5894 5892 5891 5890 5889 5887 5885 5883 5881 5879 5878 5877 5875 5874 5872 5870 5868 5866 5863 5861 5859 5856 5854 5851 5849 5846 5844 5841
5903 5901 5901 5903 5904 5905 5906 5906 5906 5907 5907 5907 5907 5907 5906 5905 5904 5903 5902 5902 5902 5901 5900 5899 5898 5898 5899 5899 5898 5898 5897 5895 5894 5893 5892 5891 5889 5888 5887 5885 5884 5882 5880 5878 5876 5874 5873 5872 5870 5868 5866 5864 5862 5859 5857 5854 5852 5850 5847 5844 5842 5839 5837
5902 5901 5900 5901 5902 5903 5904 5904 5905 5905 5905 5904 5904 5904 5903 5902 5901 5900 5899 5899 5899 5898 5898 5896 5895 5895 5896 5896 5895 5894 5893 5892 5890 5889 5888 5887 5886 5885 5883 5882 5880 5878 5876 5874 5872 5871 5869 5868 5866 5864 5862 5860 5857 5854 5852 5849 5847 5845 5843 5840 5837 5835 5833
5902 5901 5900 5901 5901 5901 5902 5902 5903 5902 5901 5901 5901 5901 5900 5899 5898 5897 5897 5896 5896 5895 5895 5894 5893 5892 5892 5893 5892 5890 5889 5888 5887 5886 5885 5884 5882 5881 5879 5878 5876 5875 5873 5871 5869 5867 5865 5864 5862 5860 5858 5855 5853 5850 5847 5845 5842 5840 5838 5835 5833 5830 5828
5900 5899 5898 5899 5899 5898 5899 5899 5899 5899 5899 5898 5898 5898 5898 5897 5896 5895 5894 5893 5893 5892 5891 5891 5890 5889 5889 5889 5888 5887 5885 5884 5884 5883 5881 5880 5879 5877 5875 5874 5873 5872 5870 5868 5866 5864 5862 5860 5858 5856 5854 5851 5849 5846 5843 5841 5838 5835 5833 5830 5828 5825 5823
5897 5896 5895 5895 5896 5896 5896 5896 5897 5897 5897 5897 5896 5896 5895 5894 5893 5892 5892 5890 5889 5889 5888 5888 5887 5886 5885 5884 5884 5883 5881 5880 5880 5879 5877 5876 5875 5874 5872 5871 5870 5869 5867 5865 5863 5861 5859 5857 5854 5852 5850 5847 5844 5841 5838 5836 5833 5831 5828 5825 5823 5820 5818
5894 5894 5893 5892 5892 5894 5895 5895 5895 5895 5895 5894 5893 5892 5891 5891 5890 5889 5888 5887 5886 5885 5885 5884 5884 5883 5881 5880 5880 5879 5878 5877 5876 5875 5874 5873 5872 5871 5869 5868 5866 5865 5864 5862 5859 5857 5855 5853 5850 5848 5845 5843 5839 5837 5834 5832 5829 5826 5823 5820 5818 5815 5812
5891 5890 5890 5888 5888 5889 5891 5892 5893 5892 5892 5891 5889 5888 5887 5886 5886 5885 5884 5882 5882 5881 5881 5881 5880 5878 5877 5876 5876 5875 5874 5873 5872 5871 5870 5870 5869 5868 5866 5864 5863 5861 5860 5858 5856 5853 5851 5848 5846 5843 5841 5838 5836 5833 5830 5827 5824 5821 5818 5815 5812 5809 5807
5889 5888 5888 5886 5885 5886 5887 5889 5889 5888 5888 5887 5885 5883 5882 5882 5882 5881 5880 5878 5878 5878 5877 5877 5876 5874 5873 5873 5873 5871 5870 5869 5868 5867 5867 5866 5866 5864 5862 5860 5859 5857 5856 5854 5851 5848 5846 5843 5841 5838 5836 5834 5831 5828 5825 5822 5819 5816 5813 5810 5807 5804 5801
5886 5886 5886 5886 5885 5884 5884 5885 5885 5884 5883 5882 5881 5879 5878 5877 5877 5876 5875 5874 5874 5874 5873 5873 5872 5871 5869 5869 5868 5867 5866 5866 5865 5865 5864 5863 5862 5860 5858 5857 5855 5853 5851 5849 5847 5844 5841 5838 5836 5833 5831 5828 5825 5822 5820 5817 5814 5811 5808 5805 5802 5799 5796
5882 5882 5883 5883 5883 5883 5882 5881 5882 5881 5880 5878 5876 5874 5873 5873 5873 5872 5871 5870 5870 5870 5869 5869 5869 5868 5866 5865 5864 5863 5863 5863 5863 5862 5861 5860 5858 5856 5855 5853 5851 5849 5847 5844 5842 5839 5836 5833 5830 5828 5825 5822 5820 5817 5814 5812 5809 5806 5802 5800 5797 5794 5791
5878 5877 5878 5878 5879 5879 5879 5878 5877 5877 5877 5874 5872 5870 5869 5869 5869 5867 5866 5865 5865 5865 5866 5865 5865 5864 5862 5861 5861 5860 5860 5860 5859 5858 5857 5855 5854 5852 5850 5849 5847 5845 5842 5839 5836 5833 5831 5828 5825 5822 5820 5817 5815 5812 5809 5806 5804 5801 5797 5795 5792 5789 5786
5875 5874 5873 5874 5874 5874 5875 5875 5874 5874 5873 5871 5869 5867 5866 5866 5865 5862 5861 5860 5859 5860 5860 5860 5860 5859 5859 5859 5858 5858 5857 5856 5855 5854 5853 5851 5849 5847 5846 5844 5842 5840 5837 5834 5831 5828 5825 5822 5820 5817 5815 5812 5809 5807 5804 5801 5798 5795 5793 5790 5787 5784 5782
5874 5872 5870 5870 5871 5871 5872 5872 5871 5870 5869 5867 5866 5864 5864 5864 5862 5859 5857 5854 5853 5852 5851 5852 5854 5856 5856 5855 5855 5854 5853 5852 5851 5850 5848 5846 5844 5842 5841 5839 5837 5834 5832 5829 5826 5823 5820 5817 5814 5811 5809 5806 5804 5801 5798 5795 5792 5790 5788 5785 5782 5780 5777
5872 5870 5868 5867 5867 5867 5868 5868 5868 5866 5864 5863 5862 5861 5861 5860 5858 5854 5852 5849 5848 5846 5846 5848 5851 5852 5851 5850 5850 5849 5848 5847 5845 5844 5842 5841 5839 5838 5836 5834 5831 5829 5826 5823 5820 5817 5814 5812 5809 5806 5804 5801 5799 5796 5793 5790 5787 5785 5782 5779 5777 5774 5772
5868 5868 5867 5865 5864 5864 5864 5864 5863 5862 5860 5859 5858 5857 5856 5854 5853 5851 5850 5849 5847 5847 5848 5848 5846 5844 5843 5843 5843 5843 5842 5841 5840 5838 5837 5835 5834 5832 5831 5828 5826 5823 5821 5818 5815 5813 5810 5808 5805 5802 5800 5797 5795 5792 5789 5786 5783 5780 5777 5775 5772 5769 5767
5865 5865 5864 5863 5862 5861 5860 5859 5859 5858 5857 5856 5854 5852 5850 5849 5849 5848 5847 5846 5845 5844 5843 5841 5838 5838 5838 5838 5838 5838 5838 5836 5834 5833 5832 5830 5829 5827 5825 5822 5820 5818 5815 5813 5811 5808 5806 5803 5801 5798 5795 5793 5790 5787 5784 5781 5778 5775 5773 5770 5767 5765 5763
5861 5861 5860 5860 5858 5857 5857 5856 5854 5854 5853 5852 5849 5848 5847 5847 5846 5845 5842 5840 5839 5838 5837 5834 5833 5834 5834 5834 5834 5835 5834 5832 5830 5829 5827 5826 5824 5821 5819 5817 5815 5813 5811 5808 5805 5803 5800 5798 5796 5793 5790 5787 5785 5783 5780 5777 5773 5771 5767 5764 5762 5761 5759
5857 5856 5856 5856 5854 5853 5853 5852 5850 5850 5849 5847 5846 5845 5844 5843 5842 5840 5837 5835 5834 5833 5831 5831 5830 5830 5829 5830 5831 5830 5829 5827 5826 5825 5823 5821 5819 5816 5813 5811 5810 5808 5805 5803 5800 5798 5795 5793 5790 5787 5784 5781 5780 5778 5775 5772 5769 5766 5763 5760 5758 5757 5754
5852 5852 5852 5852 5850 5848 5848 5846 5846 5845 5844 5842 5842 5841 5839 5838 5837 5834 5831 5831 5831 5829 5829 5829 5827 5825 5825 5826 5826 5825 5824 5823 5821 5819 5818 5816 5814 5811 5808 5806 5804 5802 5799 5797 5795 5793 5791 5789 5786 5782 5779 5776 5773 5771 5769 5767 5764 5762 5759 5756 5755 5753 5751
5848 5848 5847 5846 5845 5844 5842 5841 5840 5840 5839 5838 5837 5836 5834 5834 5833 5829 5826 5826 5827 5826 5826 5826 5824 5822 5822 5822 5822 5821 5819 5817 5816 5814 5813 5810 5808 5806 5803 5801 5799 5796 5794 5792 5790 5788 5786 5785 5783 5779 5775 5772 5769 5766 5764 5762 5760 5758 5755 5752 5751 5749 5746
5844 5844 5842 5840 5839 5838 5837 5835 5834 5834 5834 5832 5831 5830 5829 5830 5829 5825 5823 5823 5823 5822 5822 5821 5820 5819 5819 5818 5817 5815 5814 5812 5811 5809 5807 5805 5803 5801 5798 5796 5794 5791 5789 5787 5786 5784 5782 5780 5779 5775 5771 5769 5766 5762 5760 5758 5756 5754 5751 5748 5746 5743 5740
5838 5839 5838 5836 5835 5834 5832 5830 5828 5828 5828 5826 5826 5825 5825 5825 5825 5822 5820 5819 5818 5817 5816 5815 5815 5815 5814 5813 5812 5811 5809 5808 5806 5805 5803 5801 5798 5796 5794 5792 5789 5786 5784 5783 5781 5779 5778 5776 5773 5770 5767 5764 5761 5758 5755 5753 5751 5748 5746 5744 5741 5738 5735
5833 5834 5833 5832 5830 5829 5828 5825 5823 5822 5822 5821 5820 5820 5820 5820 5820 5818 5816 5815 5814 5813 5812 5812 5811 5811 5809 5808 5807 5806 5805 5804 5802 5801 5799 5796 5794 5791 5788 5786 5784 5782 5780 5777 5775 5774 5772 5769 5767 5765 5762 5759 5756 5752 5749 5747 5745 5743 5741 5739 5736 5733 5730
5828 5828 5828 5827 5826 5825 5824 5820 5816 5815 5814 5813 5813 5814 5813 5813 5813 5813 5812 5811 5810 5810 5809 5809 5807 5806 5805 5804 5803 5802 5801 5800 5799 5798 5795 5793 5790 5787 5783 5780 5778 5777 5774 5771 5768 5767 5765 5762 5761 5759 5756 5753 5750 5747 5744 5741 5739 5737 5735 5733 5730 5728 5725
5823 5823 5823 5822 5821 5820 5818 5814 5810 5808 5807 5804 5804 5806 5806 5806 5807 5807 5807 5808 5807 5807 5806 5805 5804 5803 5802 5801 5800 5798 5797 5796 5794 5792 5790 5789 5786 5782 5779 5777 5774 5773 5771 5766 5762 5760 5758 5756 5755 5753 5751 5748 5745 5742 5739 5737 5734 5732 5730 5728 5725 5723 5720
5818 5817 5816 5816 5814 5814 5814 5810 5805 5804 5804 5799 5795 5797 5800 5800 5801 5802 5803 5804 5803 5802 5801 5801 5800 5799 5798 5796 5794 5793 5792 5790 5788 5786 5785 5783 5781 5778 5776 5773 5771 5769 5767 5762 5758 5756 5753 5750 5748 5747 5745 5742 5740 5737 5735 5732 5730 5728 5725 5723 5721 5718 5715
5812 5812 5811 5811 5809 5808 5808 5805 5801 5801 5803 5796 5790 5791 5794 5796 5796 5797 5798 5798 5797 5796 5796 5796 5795 5793 5792 5791 5789 5787 5786 5784 5782 5781 5779 5778 5776 5774 5771 5768 5766 5764 5762 5758 5754 5751 5748 5744 5742 5740 5738 5736 5734 5732 5729 5727 5725 5723 5720 5718 5715 5713 5710
5806 5806 5806 5806 5805 5803 5802 5801 5798 5798 5798 5792 5785 5786 5789 5790 5790 5791 5792 5792 5791 5790 5790 5790 5789 5787 5786 5784 5783 5781 5779 5777 5776 5775 5774 5772 5771 5769 5766 5763 5760 5758 5755 5752 5748 5745 5742 5738 5736 5734 5732 5731 5729 5727 5724 5722 5719 5717 5715 5712 5710 5707 5705
5801 5800 5800 5801 5801 5798 5797 5797 5795 5794 5794 5787 5780 5780 5782 5782 5784 5785 5786 5786 5786 5785 5785 5784 5783 5781 5780 5778 5777 5776 5774 5772 5771 5770 5769 5767 5765 5763 5760 5757 5755 5752 5749 5745 5742 5738 5735 5733 5730 5728 5727 5726 5724 5721 5719 5716 5713 5711 5709 5707 5704 5702 5700
5796 5795 5795 5796 5795 5793 5793 5793 5791 5791 5790 5783 5776 5776 5777 5775 5776 5779 5780 5780 5780 5779 5779 5778 5776 5775 5774 5773 5772 5771 5770 5768 5766 5765 5764 5762 5759 5757 5755 5752 5749 5746 5742 5739 5735 5732 5729 5727 5725 5723 5722 5721 5718 5715 5713 5711 5708 5706 5704 5702 5699 5697 5695
5792 5790 5790 5790 5790 5789 5788 5788 5787 5787 5787 5781 5773 5770 5770 5769 5769 5772 5773 5774 5774 5774 5773 5773 5771 5770 5769 5769 5768 5767 5765 5763 5760 5759 5758 5756 5754 5752 5750 5747 5744 5740 5736 5732 5729 5726 5723 5721 5719 5717 5715 5713 5711 5709 5707 5705 5703 5702 5700 5698 5695 5693 5692
5785 5785 5784 5785 5786 5785 5783 5783 5782 5782 5783 5780 5771 5764 5762 5762 5763 5767 5768 5768 5769 5770 5769 5768 5767 5766 5765 5764 5763 5761 5759 5757 5754 5752 5751 5750 5748 5745 5742 5739 5736 5733 5729 5726 5723 5720 5717 5714 5712 5710 5708 5706 5704 5703 5701 5700 5698 5697 5696 5694 5692 5690 5689
5779 5778 5778 5780 5781 5780 5778 5778 5777 5777 5779 5779 5774 5766 5762 5759 5760 5762 5763 5763 5763 5764 5763 5763 5762 5760 5758 5757 5755 5753 5751 5749 5747 5744 5743 5742 5741 5738 5734 5731 5729 5726 5723 5720 5717 5714 5711 5709 5707 5705 5703 5701 5699 5698 5697 5696 5694 5693 5692 5690 5688 5687 5685
5774 5773 5773 5773 5775 5774 5772 5772 5773 5773 5774 5774 5772 5767 5762 5759 5758 5758 5758 5757 5756 5756 5756 5755 5754 5753 5751 5749 5747 5745 5743 5742 5740 5738 5736 5734 5734 5732 5729 5726 5723 5720 5717 5714 5711 5709 5706 5704 5702 5700 5699 5697 5695 5694 5693 5692 5690 5689 5687 5686 5684 5683 5681